Ponca City, OK

8:25 AM CST on November 14, 2019 (GMT -0600)
Ponca City Municipal

Weather History for KPNC - July, 2019

Change the Weather History Date:

Wednesday, July 17, 2019

  Actual Average Record
Temperature  
Mean Temperature 88 °F -  
Max Temperature 98 °F 96 °F 110 °F (1954)
Min Temperature 79 °F 72 °F 56 °F (1967)
Cooling Degree Days 24    
Growing Degree Days 38 (Base 50)    
Moisture  
Dew Point 72 °F    
Average Humidity 58    
Maximum Humidity 79    
Minimum Humidity 41    
Precipitation  
Precipitation 0.00 in - - ()
Sea Level Pressure  
Sea Level Pressure 29.84 in    
Wind  
Wind Speed 8 mph (South)    
Max Wind Speed 17 mph    
Max Gust Speed 26 mph    
Visibility 10 miles    
Events      
Averages and records for this station are not official NWS values.
T = Trace of Precipitation, MM = Missing Value Source: NWS Daily Summary

Daily Weather History Graph

Daily Weather History Graph

Search for Another Location

Airport or City:

Astronomy

Jul. 17, 2019 Rise Set
Actual Time 6:22 AM CDT 8:46 PM CDT
Civil Twilight 5:52 AM CDT 9:15 PM CDT
Nautical Twilight 5:16 AM CDT 9:52 PM CDT
Astronomical Twilight 4:35 AM CDT 10:32 PM CDT
Moon 9:36 PM CDT (7/17) 6:56 AM CDT (7/17)
Length of Visible Light 15h 23m
Length of Day
14h 23m
Full, 99% of the Moon is Illuminated
Jul 17
Full
Jul 24
Last Quarter
Jul 31
New
Aug 7
First Quarter
Aug 15
Full

Hourly Weather History & Observations

Time (CDT) Temp. Heat Index Dew Point Humidity Pressure Visibility Wind Dir Wind Speed Gust Speed Precip Events Conditions
12:53 AM 84.9 °F 92.1 °F 73.9 °F 69% 29.85 in 10.0 mi South 8.1 mph - N/A   Clear
1:53 AM 84.0 °F 91.2 °F 73.9 °F 72% 29.84 in 10.0 mi Variable 6.9 mph - N/A   Clear
2:53 AM 82.9 °F 89.4 °F 73.9 °F 74% 29.84 in 10.0 mi South 4.6 mph - N/A   Clear
3:53 AM 82.0 °F 87.4 °F 73.0 °F 74% 29.83 in 10.0 mi South 3.5 mph - N/A   Clear
4:53 AM 81.0 °F 85.2 °F 72.0 °F 74% 29.85 in 10.0 mi South 5.8 mph - N/A   Clear
5:53 AM 80.1 °F 83.8 °F 72.0 °F 76% 29.86 in 10.0 mi South 4.6 mph - N/A   Clear
6:53 AM 79.0 °F - 72.0 °F 79% 29.87 in 10.0 mi South 4.6 mph - N/A   Clear
7:53 AM 82.0 °F 86.3 °F 71.1 °F 69% 29.88 in 10.0 mi South 5.8 mph - N/A   Clear
8:53 AM 84.0 °F 89.6 °F 72.0 °F 67% 29.88 in 10.0 mi South 8.1 mph - N/A   Clear
9:53 AM 88.0 °F 94.7 °F 72.0 °F 59% 29.88 in 10.0 mi SSW 8.1 mph - N/A   Clear
10:53 AM 91.0 °F 98.2 °F 72.0 °F 53% 29.88 in 10.0 mi SSW 10.4 mph 19.6 mph N/A   Clear
11:53 AM 93.9 °F 103.4 °F 73.0 °F 51% 29.89 in 10.0 mi SSW 9.2 mph 18.4 mph N/A   Clear
12:53 PM 95.0 °F 104.5 °F 73.0 °F 49% 29.88 in 10.0 mi SSW 17.3 mph 26.5 mph N/A   Clear
1:53 PM 97.0 °F 107.7 °F 73.9 °F 47% 29.86 in 10.0 mi SSW 12.7 mph 21.9 mph N/A   Clear
2:53 PM 97.0 °F 105.5 °F 72.0 °F 44% 29.84 in 10.0 mi SSW 16.1 mph 25.3 mph N/A   Partly Cloudy
3:53 PM 98.1 °F 107.2 °F 72.0 °F 43% 29.83 in 10.0 mi SSW 10.4 mph 20.7 mph N/A   Clear
4:53 PM 97.0 °F 103.5 °F 70.0 °F 41% 29.81 in 10.0 mi South 11.5 mph 25.3 mph N/A   Clear
5:53 PM 97.0 °F 103.5 °F 70.0 °F 41% 29.80 in 10.0 mi South 13.8 mph 21.9 mph N/A   Clear
6:53 PM 96.1 °F 103.5 °F 71.1 °F 44% 29.80 in 10.0 mi South 10.4 mph 20.7 mph N/A   Clear
7:53 PM 93.9 °F 100.3 °F 70.0 °F 46% 29.79 in 10.0 mi South 10.4 mph 21.9 mph N/A   Clear
8:53 PM 91.0 °F 96.6 °F 70.0 °F 50% 29.79 in 10.0 mi South 10.4 mph 19.6 mph N/A   Clear
9:53 PM 88.0 °F 94.7 °F 72.0 °F 59% 29.81 in 10.0 mi South 13.8 mph 23.0 mph N/A   Clear
10:53 PM 87.1 °F 92.8 °F 71.1 °F 59% 29.83 in 10.0 mi South 8.1 mph 23.0 mph N/A   Clear
11:53 PM 84.9 °F 89.4 °F 70.0 °F 61% 29.85 in 10.0 mi South 9.2 mph 18.4 mph N/A   Clear